Temp
5 5 5 5 5 4 4 4 4 4 4 4 4 4 4 4 3 3 3 3 3 3 3 3 3 3 3 3 3 3 3 3 3 3 3 3 3 3 3 3 3 3 3 3 3 3 3 3 3 3 3 3
5 5 5 4 4 4 4 4 4 4 4 4 4 3 3 3 3 3 3 3 3 3 3 3 3 3 3 3 3 3 3 3 3 3 3 3 3 3 3 3 3 3 3 3 3 3 3 3 3 3 3 3
5 5 4 4 4 4 4 4 3 3 3 3 3 3 3 3 3 3 3 3 3 3 3 3 3 3 3 3 3 3 3 3 3 3 3 3 3 3 3 3 3 3 3 3 3 3 3 3 3 3 3 3
5 4 4 4 4 3 3 3 3 3 3 3 3 3 3 3 3 3 3 2 2 2 2 2 2 2 2 2 2 2 2 2 2 3 3 2 2 2 2 2 3 3 2 2 2 2 2 2 2 2 3 2
4 4 4 3 3 3 3 3 3 3 3 3 3 3 3 3 3 3 2 2 2 2 2 2 2 2 2 2 2 2 2 2 2 2 2 2 2 2 2 2 2 2 2 2 2 2 2 2 2 2 2 2
4 4 4 3 3 3 3 3 3 3 3 3 3 3 3 3 3 3 2 2 2 2 2 2 2 2 2 2 2 2 2 2 2 2 2 2 2 2 2 2 2 2 2 2 2 2 2 2 2 2 2 2
4 3 3 3 3 3 3 2 2 2 3 3 3 3 3 3 3 2 2 2 2 2 2 2 2 2 2 2 2 2 2 2 1 1 1 1 1 1 1 1 1 1 1 1 1 1 1 1 1 1 1 1
3 3 3 3 2 2 2 2 2 2 2 3 2 2 2 2 2 2 2 2 2 2 2 2 1 1 1 1 1 1 1 1 1 1 1 1 1 1 1 1 1 1 1 1 1 1 1 1 1 1 1 1
3 3 3 3 2 2 2 2 2 2 2 2 2 2 2 2 2 2 2 2 2 1 1 1 1 1 1 1 1 1 1 1 1 1 1 1 1 1 1 1 1 1 1 1 1 1 1 0 0 0 0 0
3 3 3 2 2 2 2 2 2 2 2 2 2 2 2 2 2 2 2 2 1 1 1 1 1 1 1 1 0 0 0 0 0 0 0 0 0 0 0 0 0 0 0 0 0 0 0 -0 -0 -0 -0 -0
3 3 2 2 2 2 2 2 2 2 2 2 2 2 2 2 2 2 2 1 1 1 1 1 1 1 0 0 0 -0 -0 0 -0 -0 -0 -0 -0 -0 -0 -0 -0 -0 -0 -0 -0 -0 -1 -1 -1 -1 -1 -1
2 2 2 2 2 2 2 2 2 2 2 2 2 2 2 2 2 1 1 1 1 1 1 1 0 0 0 0 -0 -0 -0 -0 -0 -0 -0 -0 -0 -1 -1 -1 -1 -1 -1 -1 -1 -1 -1 -1 -1 -1 -1 -1
2 2 2 2 2 2 2 2 2 2 1 1 1 1 1 1 1 1 1 1 1 1 1 0 0 0 0 -0 -0 -1 -1 -1 -1 -1 -1 -1 -1 -1 -1 -1 -1 -1 -1 -1 -1 -1 -1 -1 -1 -1 -1 -1
2 2 2 2 2 2 2 2 1 1 1 1 1 1 1 1 1 1 1 1 0 0 0 0 0 -0 -0 -0 -1 -1 -1 -1 -1 -1 -1 -1 -1 -1 -1 -1 -1 -1 -1 -1 -1 -1 -1 -1 -1 -1 -1 -1
2 2 2 1 1 1 1 1 1 1 1 1 1 1 1 1 0 0 0 0 0 -0 -0 -0 -0 -0 -1 -1 -1 -1 -1 -1 -1 -1 -1 -1 -1 -2 -2 -2 -2 -1 -2 -2 -2 -1 -2 -2 -2 -1 -1 -2
2 1 1 1 1 1 1 1 1 1 0 0 0 0 0 0 0 0 0 -0 -0 -0 -1 -1 -1 -1 -1 -1 -2 -2 -2 -2 -2 -2 -2 -2 -2 -2 -2 -2 -2 -2 -2 -2 -2 -2 -2 -2 -2 -2 -2 -2
2 1 1 1 1 1 1 1 1 1 0 0 0 -0 -0 -0 -0 -0 -0 -1 -1 -1 -1 -1 -1 -2 -2 -2 -2 -2 -2 -2 -2 -2 -2 -2 -2 -2 -3 -3 -3 -2 -2 -2 -2 -2 -2 -2 -2 -2 -2 -2
2 2 2 2 2 1 1 1 1 1 0 0 0 -0 -0 -0 -1 -1 -1 -1 -1 -1 -1 -2 -2 -2 -2 -2 -2 -3 -3 -3 -3 -3 -3 -3 -3 -3 -3 -3 -3 -3 -3 -3 -3 -3 -3 -3 -3 -2 -2 -3
2 2 2 2 2 2 1 1 1 1 1 0 0 0 -0 -1 -1 -1 -1 -1 -2 -2 -2 -2 -2 -2 -2 -3 -3 -3 -3 -3 -3 -3 -3 -3 -3 -3 -3 -3 -4 -3 -3 -3 -3 -3 -3 -3 -3 -3 -3 -3
2 2 2 2 2 2 2 2 1 1 1 1 1 0 -0 -1 -1 -1 -2 -2 -2 -2 -2 -2 -2 -3 -3 -3 -3 -3 -3 -3 -3 -3 -3 -3 -4 -4 -4 -4 -4 -4 -4 -4 -4 -4 -4 -4 -4 -4 -4 -4
2 2 1 1 1 1 1 1 1 1 1 1 1 0 -0 -1 -1 -1 -2 -2 -2 -2 -2 -2 -2 -2 -3 -3 -3 -3 -3 -3 -3 -3 -3 -3 -4 -4 -3 -4 -4 -4 -4 -4 -4 -4 -4 -4 -4 -4 -4 -5
1 1 1 1 1 1 1 0 0 0 0 0 -0 -0 -0 -1 -1 -1 -1 -2 -2 -2 -2 -2 -2 -2 -2 -3 -3 -3 -3 -3 -3 -3 -3 -3 -3 -3 -3 -3 -4 -4 -4 -4 -4 -4 -4 -4 -4 -5 -5 -5
1 1 1 0 0 -0 -0 -0 -1 -1 -1 -1 -1 -1 -1 -1 -1 -1 -1 -1 -1 -1 -1 -2 -2 -2 -2 -2 -3 -3 -3 -3 -3 -3 -3 -3 -3 -3 -4 -4 -4 -4 -4 -4 -4 -4 -4 -4 -4 -5 -5 -5
1 1 0 0 0 -0 -0 -1 -1 -1 -1 -1 -1 -2 -2 -2 -2 -2 -2 -2 -2 -2 -2 -2 -2 -2 -2 -2 -2 -2 -2 -3 -3 -3 -3 -3 -3 -3 -4 -4 -4 -4 -4 -4 -4 -4 -4 -4 -4 -4 -5 -5
0 -0 -0 -0 -0 -0 -0 -1 -1 -1 -1 -1 -1 -2 -2 -2 -2 -2 -2 -3 -2 -2 -2 -2 -2 -3 -3 -3 -3 -3 -3 -3 -3 -3 -3 -3 -3 -3 -4 -4 -4 -4 -4 -4 -4 -4 -4 -4 -4 -4 -4 -5
-0 -0 -1 -1 -1 -1 -1 -1 -1 -1 -1 -1 -2 -2 -2 -2 -2 -3 -3 -3 -3 -3 -3 -3 -3 -3 -3 -3 -3 -3 -3 -3 -3 -4 -4 -4 -4 -4 -4 -4 -4 -5 -5 -5 -5 -5 -4 -4 -4 -4 -4 -4
-0 -0 -1 -1 -1 -1 -1 -2 -1 -2 -2 -2 -2 -2 -2 -2 -2 -2 -3 -3 -3 -3 -3 -4 -4 -4 -4 -4 -4 -4 -4 -4 -4 -4 -4 -5 -4 -4 -5 -5 -5 -5 -5 -6 -6 -6 -5 -5 -5 -4 -4 -5
-0 -1 -1 -1 -1 -1 -2 -2 -2 -2 -2 -2 -2 -2 -2 -2 -2 -2 -2 -2 -3 -3 -3 -3 -4 -4 -4 -4 -4 -5 -5 -5 -5 -5 -5 -5 -5 -5 -5 -5 -6 -6 -6 -6 -7 -7 -6 -6 -6 -5 -5 -6
-0 -1 -1 -1 -1 -2 -2 -2 -2 -2 -2 -2 -2 -2 -2 -2 -2 -2 -2 -3 -3 -3 -3 -3 -3 -4 -4 -4 -4 -5 -5 -5 -5 -5 -6 -6 -6 -6 -6 -6 -6 -6 -7 -7 -7 -7 -7 -7 -7 -7 -6 -6
-1 -1 -1 -1 -1 -2 -2 -2 -2 -2 -2 -2 -2 -2 -2 -2 -2 -2 -3 -3 -3 -3 -3 -3 -3 -3 -4 -4 -4 -4 -5 -5 -5 -6 -6 -6 -6 -6 -7 -7 -7 -7 -7 -7 -7 -7 -8 -8 -8 -8 -7 -7
-1 -2 -2 -2 -2 -2 -2 -3 -3 -3 -3 -3 -3 -3 -3 -3 -3 -3 -3 -3 -3 -3 -3 -3 -4 -4 -4 -4 -4 -4 -5 -5 -5 -6 -6 -6 -7 -7 -7 -7 -7 -7 -7 -7 -8 -8 -8 -8 -8 -8 -8 -8
Height
3148 3147 3146 3144 3143 3141 3140 3139 3137 3136 3134 3132 3131 3130 3128 3127 3125 3124 3123 3121 3120 3119 3118 3117 3116 3116 3115 3114 3114 3113 3112 3111 3110 3109 3107 3106 3105 3103 3102 3101 3099 3098 3097 3096 3095 3094 3093 3092 3091 3090 3089 3088
3147 3145 3144 3142 3141 3139 3138 3137 3135 3134 3132 3130 3129 3127 3126 3125 3123 3122 3121 3119 3118 3117 3116 3115 3114 3113 3113 3112 3111 3110 3109 3108 3107 3106 3105 3104 3102 3101 3100 3098 3097 3096 3094 3093 3092 3091 3090 3089 3088 3087 3086 3085
3145 3143 3142 3140 3139 3137 3136 3135 3133 3132 3130 3128 3127 3125 3124 3123 3121 3120 3119 3118 3116 3115 3114 3113 3112 3111 3110 3109 3108 3107 3107 3105 3104 3103 3102 3101 3099 3098 3097 3095 3094 3093 3092 3091 3090 3088 3087 3086 3085 3084 3083 3082
3143 3141 3140 3138 3137 3135 3134 3132 3131 3130 3128 3126 3125 3124 3122 3121 3120 3118 3117 3116 3115 3113 3112 3111 3110 3109 3108 3107 3106 3105 3104 3102 3101 3100 3099 3097 3096 3095 3094 3092 3091 3090 3089 3088 3087 3086 3084 3083 3082 3081 3080 3079
3141 3139 3138 3136 3135 3133 3132 3130 3129 3128 3126 3125 3124 3122 3121 3120 3118 3117 3115 3114 3113 3111 3110 3109 3108 3107 3106 3104 3103 3102 3101 3099 3098 3097 3095 3094 3093 3092 3090 3089 3088 3087 3086 3084 3083 3082 3081 3080 3079 3078 3077 3076
3139 3137 3136 3134 3133 3131 3130 3129 3128 3126 3125 3123 3122 3121 3119 3118 3116 3115 3114 3112 3111 3110 3108 3107 3106 3105 3103 3102 3101 3100 3098 3097 3095 3094 3092 3091 3090 3088 3087 3086 3084 3083 3082 3081 3079 3078 3077 3076 3075 3074 3073 3071
3137 3135 3134 3132 3131 3130 3128 3127 3126 3125 3123 3122 3120 3119 3117 3116 3115 3113 3112 3111 3109 3108 3107 3105 3104 3102 3101 3100 3098 3097 3095 3094 3092 3090 3089 3087 3086 3085 3083 3082 3081 3079 3078 3077 3075 3074 3073 3072 3070 3069 3068 3067
3135 3133 3132 3130 3129 3128 3127 3126 3124 3123 3121 3120 3118 3117 3115 3114 3113 3111 3110 3108 3107 3106 3104 3103 3101 3100 3098 3097 3095 3094 3092 3090 3089 3087 3085 3084 3082 3081 3080 3078 3077 3076 3074 3073 3071 3070 3068 3067 3066 3064 3063 3062
3133 3131 3130 3129 3128 3127 3125 3124 3123 3121 3119 3118 3116 3115 3113 3112 3111 3109 3108 3106 3105 3103 3102 3100 3099 3097 3095 3094 3092 3090 3089 3087 3085 3083 3082 3080 3079 3077 3076 3074 3073 3071 3070 3069 3067 3065 3064 3062 3061 3060 3058 3057
3131 3130 3128 3127 3126 3125 3123 3122 3121 3119 3117 3116 3115 3113 3112 3110 3109 3107 3106 3104 3102 3101 3099 3098 3096 3094 3093 3091 3089 3087 3085 3084 3082 3080 3078 3077 3075 3073 3072 3070 3069 3067 3066 3064 3063 3061 3059 3058 3056 3055 3054 3052
3129 3128 3127 3125 3124 3123 3121 3120 3119 3117 3116 3114 3113 3111 3110 3108 3107 3105 3103 3102 3100 3098 3096 3095 3093 3091 3090 3088 3086 3084 3082 3080 3078 3076 3075 3073 3071 3069 3068 3066 3064 3063 3061 3060 3058 3056 3055 3053 3051 3050 3049 3047
3127 3126 3125 3123 3122 3121 3119 3118 3116 3115 3114 3112 3110 3109 3107 3106 3104 3102 3101 3099 3097 3095 3094 3092 3090 3088 3086 3084 3082 3080 3079 3077 3075 3073 3071 3069 3067 3065 3063 3062 3060 3058 3056 3055 3053 3052 3050 3049 3047 3045 3044 3042
3125 3124 3123 3121 3120 3118 3117 3116 3114 3113 3111 3110 3108 3106 3105 3103 3101 3100 3098 3096 3094 3092 3091 3089 3087 3085 3083 3081 3079 3077 3075 3073 3071 3069 3067 3065 3063 3061 3059 3057 3055 3054 3052 3050 3049 3047 3046 3044 3042 3041 3039 3037
3123 3122 3120 3119 3117 3116 3115 3113 3112 3110 3109 3107 3105 3103 3102 3100 3098 3097 3095 3093 3091 3089 3087 3086 3084 3082 3080 3078 3076 3073 3071 3069 3067 3065 3063 3061 3059 3056 3055 3053 3051 3049 3048 3046 3044 3042 3041 3039 3038 3036 3034 3033
3121 3120 3118 3116 3115 3114 3112 3111 3109 3108 3106 3104 3102 3100 3099 3097 3095 3093 3091 3090 3088 3086 3084 3082 3080 3078 3076 3074 3072 3069 3067 3064 3063 3061 3058 3056 3054 3052 3050 3048 3046 3044 3043 3041 3040 3038 3036 3035 3033 3031 3029 3028
3119 3117 3115 3114 3112 3111 3110 3108 3107 3105 3103 3101 3099 3097 3095 3094 3092 3090 3088 3086 3084 3082 3080 3078 3076 3074 3072 3070 3067 3064 3062 3060 3058 3056 3054 3052 3050 3048 3045 3043 3042 3040 3038 3037 3035 3033 3031 3030 3028 3026 3024 3022
3116 3115 3113 3112 3110 3109 3107 3106 3104 3102 3100 3098 3096 3094 3092 3090 3088 3087 3084 3082 3081 3078 3076 3074 3072 3070 3068 3065 3062 3059 3057 3055 3053 3051 3049 3047 3045 3043 3041 3038 3037 3035 3032 3031 3030 3028 3026 3024 3022 3021 3019 3017
3114 3112 3111 3109 3108 3106 3104 3103 3101 3099 3097 3095 3092 3090 3089 3087 3085 3083 3081 3078 3076 3074 3072 3070 3068 3066 3063 3060 3057 3054 3052 3050 3048 3046 3044 3042 3039 3038 3035 3033 3032 3029 3027 3025 3024 3023 3020 3018 3016 3014 3013 3011
3112 3110 3109 3107 3105 3103 3102 3100 3098 3096 3093 3091 3089 3087 3085 3084 3081 3079 3076 3074 3071 3069 3067 3064 3062 3060 3057 3055 3052 3049 3047 3044 3043 3040 3039 3037 3034 3031 3030 3027 3026 3024 3021 3019 3017 3016 3014 3012 3010 3008 3007 3005
3110 3108 3106 3105 3103 3101 3099 3097 3095 3093 3090 3088 3086 3084 3082 3080 3077 3074 3072 3069 3066 3063 3061 3058 3057 3055 3052 3049 3046 3044 3041 3039 3037 3035 3033 3032 3029 3025 3023 3021 3019 3018 3015 3012 3011 3010 3008 3006 3004 3001 3000 2999
3108 3106 3104 3103 3101 3099 3097 3095 3093 3090 3088 3086 3084 3081 3079 3076 3073 3070 3067 3064 3061 3058 3056 3053 3051 3049 3047 3043 3041 3038 3036 3034 3032 3030 3027 3025 3023 3020 3017 3015 3013 3012 3009 3005 3003 3002 3002 3001 2998 2995 2994 2992
3106 3104 3102 3101 3099 3097 3095 3093 3090 3088 3086 3084 3081 3078 3075 3072 3069 3066 3063 3059 3056 3053 3051 3048 3046 3044 3042 3038 3036 3033 3031 3029 3027 3024 3022 3019 3017 3014 3011 3008 3006 3005 3003 2999 2996 2994 2994 2994 2991 2989 2988 2986
3103 3101 3099 3098 3096 3094 3092 3090 3088 3085 3083 3080 3077 3075 3071 3068 3065 3061 3058 3055 3051 3048 3046 3044 3041 3039 3037 3034 3030 3028 3026 3024 3022 3019 3016 3013 3011 3008 3005 3002 3000 2998 2995 2992 2989 2987 2987 2986 2984 2983 2982 2980
3100 3098 3096 3094 3092 3090 3088 3086 3084 3082 3079 3076 3073 3070 3067 3064 3061 3058 3055 3052 3048 3045 3042 3040 3037 3035 3033 3029 3026 3023 3021 3019 3017 3014 3011 3008 3004 3001 2999 2996 2993 2991 2989 2985 2981 2979 2978 2977 2975 2975 2976 2973
3097 3095 3093 3091 3089 3087 3085 3082 3080 3078 3075 3072 3069 3067 3063 3060 3057 3054 3051 3048 3045 3041 3039 3036 3033 3031 3028 3025 3021 3018 3016 3014 3012 3009 3005 3001 2998 2994 2991 2989 2987 2985 2982 2978 2974 2971 2969 2967 2966 2967 2967 2966
3094 3092 3090 3087 3085 3083 3082 3079 3076 3074 3071 3068 3065 3062 3059 3055 3052 3049 3047 3044 3040 3037 3035 3031 3029 3026 3023 3020 3017 3013 3010 3008 3006 3003 3000 2996 2992 2988 2984 2982 2981 2978 2975 2972 2968 2964 2960 2957 2957 2957 2956 2955
3091 3089 3086 3084 3081 3079 3077 3075 3072 3069 3067 3064 3061 3058 3054 3050 3047 3044 3042 3039 3035 3032 3029 3026 3023 3020 3018 3015 3012 3008 3004 3002 3000 2997 2994 2990 2985 2982 2978 2975 2974 2971 2968 2967 2964 2959 2953 2950 2947 2945 2945 2943
3088 3086 3083 3080 3078 3075 3073 3070 3068 3065 3062 3059 3056 3053 3049 3045 3042 3039 3036 3033 3030 3027 3024 3021 3018 3014 3012 3009 3006 3002 2998 2995 2993 2990 2987 2983 2979 2976 2972 2969 2967 2964 2961 2960 2959 2953 2948 2945 2941 2937 2936 2933
3085 3082 3080 3077 3074 3072 3069 3066 3063 3060 3058 3055 3052 3048 3044 3041 3037 3034 3031 3028 3024 3021 3018 3015 3012 3008 3005 3002 2999 2995 2992 2988 2985 2982 2980 2977 2973 2969 2965 2962 2959 2957 2954 2951 2950 2947 2943 2939 2934 2930 2928 2923
3082 3079 3076 3073 3070 3067 3064 3061 3058 3055 3052 3049 3047 3043 3040 3036 3032 3029 3026 3022 3019 3016 3012 3009 3006 3002 2999 2995 2992 2988 2985 2981 2978 2975 2972 2969 2966 2963 2959 2955 2951 2949 2948 2943 2941 2939 2936 2933 2926 2922 2920 2914
3078 3075 3072 3068 3065 3061 3059 3056 3053 3050 3047 3043 3040 3037 3034 3031 3027 3024 3020 3016 3013 3009 3006 3003 2999 2996 2992 2988 2985 2981 2978 2974 2971 2967 2964 2961 2958 2955 2952 2948 2944 2941 2939 2935 2932 2928 2925 2923 2920 2915 2912 2907
Wind_Speed
24 24 23 23 22 22 22 22 22 22 23 23 24 24 24 24 24 23 22 21 20 20 19 19 18 18 18 19 20 21 21 22 23 24 24 25 25 26 26 25 25 25 25 25 25 25 25 24 24 24 24 24
24 24 23 22 22 21 21 22 22 22 23 23 23 24 24 24 24 23 22 21 20 20 20 20 19 19 20 20 21 22 23 23 24 25 26 26 27 27 27 27 27 27 27 27 27 27 27 27 26 26 26 26
23 23 22 22 21 21 21 21 22 22 23 23 23 23 24 24 23 23 22 22 21 20 20 20 20 20 21 21 22 23 24 25 26 26 27 28 28 28 28 28 28 28 28 28 28 29 29 29 28 28 28 28
23 23 22 21 21 21 21 21 22 22 23 23 23 23 24 23 23 23 22 22 22 21 21 21 21 21 22 23 23 24 25 26 27 28 28 29 29 30 30 30 29 29 29 29 29 29 30 30 30 30 30 30
24 23 22 21 21 21 21 22 22 23 23 23 24 24 24 24 24 23 23 23 22 22 22 22 22 22 23 24 24 25 26 27 28 29 30 30 30 31 31 31 31 31 31 31 31 31 31 31 31 31 32 32
24 23 22 22 22 22 22 23 23 23 23 24 24 24 24 24 24 24 24 23 23 23 23 23 23 24 24 25 26 27 28 29 29 30 31 31 31 31 32 32 32 32 32 32 32 32 32 32 32 32 33 33
24 23 23 22 22 22 23 23 24 24 24 24 24 24 25 25 24 24 24 23 23 23 24 24 24 24 25 26 27 28 29 30 30 31 31 32 32 32 33 33 33 33 33 33 33 33 33 33 33 33 34 34
25 24 24 23 23 23 24 24 24 24 24 24 24 25 25 25 25 24 24 24 24 24 24 24 25 25 26 27 28 29 30 30 31 31 32 32 33 33 33 34 34 34 34 34 34 34 34 34 34 35 35 35
25 25 25 24 24 24 25 25 25 25 25 25 25 25 25 25 25 25 25 24 24 25 25 25 26 26 27 28 29 29 31 31 32 32 32 33 34 34 34 34 35 35 35 35 35 35 35 35 35 36 36 36
26 26 25 25 25 25 26 25 25 25 26 25 25 26 26 26 26 26 26 26 26 26 26 26 27 27 28 29 30 30 31 32 33 33 33 34 34 35 35 35 36 36 36 36 36 36 36 36 37 37 37 38
26 26 26 26 26 26 26 26 26 26 26 26 26 27 27 27 27 27 27 27 27 27 27 28 28 29 29 30 31 31 32 33 33 34 34 34 35 36 36 36 36 36 36 36 37 37 37 37 38 38 38 39
26 26 26 27 27 27 27 27 26 27 27 27 27 28 28 29 29 28 28 28 28 28 29 29 30 30 31 31 32 33 33 34 34 35 35 35 36 37 37 37 37 37 37 37 37 37 38 38 39 39 40 40
26 27 27 27 28 27 27 27 27 27 27 28 28 28 29 30 30 30 30 29 30 30 30 31 32 32 33 33 34 35 35 36 36 37 37 37 38 38 39 39 39 39 39 39 39 39 39 39 40 41 41 42
27 27 27 28 28 28 27 27 27 27 28 28 29 29 30 30 31 31 31 31 31 32 32 33 33 34 35 35 36 37 37 38 38 38 39 39 39 40 41 41 41 41 41 41 41 41 41 41 42 42 43 43
27 27 28 28 28 28 28 28 28 28 28 29 30 30 31 31 32 32 32 32 33 33 34 34 35 35 36 36 37 38 39 40 40 40 40 41 41 42 43 43 43 43 43 43 43 43 43 43 44 44 45 45
27 28 29 29 30 30 29 29 29 29 29 30 31 31 32 33 33 34 34 34 34 34 35 35 36 36 37 37 38 39 40 41 41 41 41 42 42 43 44 44 44 45 45 45 45 45 45 45 45 45 46 46
28 29 30 31 31 31 31 30 30 30 31 32 32 33 34 34 35 35 35 35 35 36 36 36 37 37 38 38 39 40 41 41 42 42 42 43 44 44 45 46 45 46 47 46 46 46 47 47 47 46 47 47
29 30 31 31 32 32 32 32 32 32 33 33 34 35 36 36 36 37 37 37 37 37 38 38 38 38 39 40 41 42 43 43 43 44 43 44 45 46 46 47 47 47 48 48 48 47 47 48 48 48 48 47
29 30 31 32 32 33 33 33 33 34 34 35 36 37 37 37 38 38 39 39 39 39 40 40 40 40 40 42 43 44 44 44 44 45 45 45 46 47 48 48 48 49 49 50 49 49 49 49 49 49 49 48
29 30 31 32 32 33 34 34 35 35 36 37 38 38 38 38 39 39 40 40 41 42 42 42 42 42 43 45 45 46 47 46 46 46 47 46 47 49 50 50 50 50 51 52 52 50 50 50 51 51 50 49
28 29 30 31 32 33 34 34 36 36 37 38 38 39 39 40 40 41 41 41 43 43 44 45 46 46 47 48 49 49 49 49 48 49 50 50 50 52 53 53 53 53 53 55 55 54 52 52 53 53 51 51
29 29 30 31 32 33 34 35 36 37 37 38 39 40 41 42 43 43 43 43 45 45 46 47 48 48 49 50 51 51 52 51 52 52 53 54 54 55 56 57 57 56 56 58 59 58 56 55 55 54 53 53
30 30 31 32 33 33 34 35 36 37 38 39 40 41 42 44 45 45 46 47 48 49 49 50 50 50 50 52 53 54 54 54 54 55 56 57 58 58 59 59 59 59 59 61 62 62 60 59 59 57 56 56
31 31 32 33 34 34 34 35 35 36 37 38 40 41 43 44 46 47 48 50 51 52 53 53 53 53 53 54 55 56 56 56 56 57 58 59 60 60 61 61 61 61 61 63 64 65 64 64 63 61 59 59
29 30 31 32 33 34 34 35 36 36 38 39 40 41 43 44 46 47 49 50 52 53 54 55 55 56 56 56 57 58 58 58 58 58 59 60 62 62 63 63 63 63 63 65 66 68 68 68 67 66 64 63
28 29 30 31 32 33 33 34 35 36 38 39 40 42 43 45 46 47 48 49 51 53 54 55 56 57 57 57 59 60 60 60 60 60 61 62 63 64 65 65 64 64 65 65 67 69 71 72 71 70 69 68
31 32 32 33 33 33 33 34 35 36 37 39 40 42 44 45 47 48 48 50 51 53 53 55 56 57 58 58 59 61 62 62 62 62 63 64 65 66 66 67 66 67 66 65 66 68 71 73 74 75 74 73
33 34 35 35 35 35 35 36 36 36 37 39 40 41 43 45 47 48 49 50 52 53 54 55 56 57 58 59 60 61 62 63 63 63 64 65 66 67 68 69 68 69 69 68 66 68 71 73 74 76 76 76
35 36 36 37 37 37 37 38 38 38 38 39 40 41 43 45 47 48 49 50 52 53 54 55 56 57 58 59 60 61 62 63 64 65 65 66 66 67 69 70 70 70 70 71 69 69 70 72 74 76 77 79
38 38 39 39 40 40 39 40 40 41 42 41 41 42 44 46 47 49 50 51 52 53 54 55 56 57 58 59 60 61 62 63 64 65 65 66 67 67 68 70 71 72 71 72 73 72 71 71 73 76 78 80
38 39 39 40 40 41 41 41 42 42 43 44 44 44 45 46 48 49 50 51 52 53 54 55 56 57 58 59 60 61 62 63 64 65 65 66 66 67 68 69 70 71 71 72 72 73 72 72 71 72 74 76
Wind_Direction
306 305 305 306 307 307 307 309 312 314 315 315 315 315 316 317 317 317 316 315 313 312 310 307 303 300 299 298 298 299 300 301 302 302 302 302 302 303 303 304 303 302 301 298 296 294 293 291 291 290 290 290
305 304 305 305 305 305 306 309 311 312 312 312 313 315 316 316 316 315 314 313 312 311 309 306 303 300 299 298 298 299 299 300 300 301 301 301 301 302 303 303 303 303 302 301 299 297 295 293 291 290 289 288
303 302 302 302 302 304 306 309 309 310 310 311 313 314 315 315 314 313 312 311 311 309 308 306 303 300 299 298 298 298 299 300 300 300 300 300 300 300 301 301 301 302 301 301 300 298 296 295 292 290 288 287
300 299 299 300 302 305 307 307 308 308 309 310 312 314 313 313 312 311 311 310 309 308 307 305 303 301 299 298 298 299 299 299 299 299 299 299 299 299 299 299 299 299 299 299 299 298 297 295 293 291 289 287
298 297 298 300 303 305 306 306 306 307 308 310 311 312 312 312 311 310 309 309 308 307 306 305 303 302 300 299 298 298 298 298 298 297 297 297 297 297 297 297 297 297 297 297 297 296 296 295 294 292 290 289
297 297 298 301 303 304 305 305 305 306 308 309 310 311 311 310 309 308 307 307 306 305 305 304 303 302 300 299 298 297 296 296 296 296 296 296 296 296 296 296 296 296 296 295 295 295 295 295 294 293 291 290
297 298 299 300 303 304 304 304 304 305 306 307 309 309 308 308 307 307 306 306 305 305 304 303 302 301 300 298 297 296 295 295 295 295 296 296 296 296 296 296 295 295 295 294 294 293 293 292 292 291 290 289
298 299 300 301 303 303 302 302 302 303 304 305 306 306 305 305 305 305 305 305 305 304 303 303 302 300 299 298 297 296 295 295 295 295 295 295 296 295 295 294 294 293 293 293 292 291 291 290 290 289 289 288
299 300 300 301 301 300 299 299 300 300 301 302 303 303 303 303 303 303 304 305 304 303 302 301 301 299 299 298 297 296 295 295 295 295 295 295 295 294 293 293 292 292 291 291 290 290 290 290 289 288 288 287
298 299 299 298 297 297 296 297 298 298 299 301 301 301 301 301 301 302 302 302 301 301 300 300 299 298 298 297 297 296 295 295 295 295 294 294 294 293 292 292 291 291 290 290 290 290 290 290 289 289 288 287
297 297 296 295 294 294 294 295 296 297 298 299 298 298 298 298 299 299 299 299 299 298 298 298 298 297 297 297 296 296 295 295 294 294 294 294 294 293 293 292 292 291 291 290 290 290 290 290 290 289 289 288
294 294 294 293 292 292 292 293 294 295 296 296 295 295 295 296 296 297 297 297 297 296 296 297 296 296 296 296 295 295 294 294 294 293 293 294 293 293 293 292 292 292 292 291 291 291 291 290 290 290 289 289
292 291 291 290 289 290 289 290 292 293 293 293 293 292 293 293 294 294 295 295 295 295 295 295 295 294 294 294 294 294 293 292 292 292 292 292 292 292 292 292 292 292 292 292 291 291 291 291 290 290 289 289
290 289 288 288 288 287 288 288 289 290 290 291 291 291 291 292 292 293 293 294 294 294 293 293 292 292 292 292 292 292 291 290 290 290 290 291 291 291 291 291 291 291 291 291 291 291 291 291 290 290 289 289
288 287 286 286 286 286 287 287 287 288 289 289 290 290 291 291 291 292 292 292 292 292 291 291 290 290 290 291 291 290 289 289 289 289 289 289 290 290 290 290 290 290 290 290 290 290 290 290 290 290 290 290
286 285 285 286 287 287 288 288 288 288 288 289 290 290 290 291 291 291 291 290 290 290 289 288 288 288 289 289 289 288 287 287 288 288 288 289 289 289 289 289 289 289 289 289 289 290 290 289 289 290 291 291
286 285 286 287 288 289 289 289 288 288 289 289 289 289 289 290 290 290 289 288 287 287 286 286 286 286 287 287 286 286 286 286 287 288 288 289 288 288 288 288 288 288 288 288 288 289 289 288 289 289 290 290
289 289 289 289 289 290 289 289 289 289 289 289 288 288 288 288 288 288 287 286 285 284 284 284 284 284 284 284 284 284 284 285 286 287 288 288 288 288 287 287 287 287 287 287 287 287 287 287 287 288 288 289
296 294 293 292 291 290 290 290 290 289 288 288 287 287 287 287 286 286 285 284 284 283 282 281 281 281 281 281 281 282 283 284 285 285 286 287 287 287 286 286 286 286 287 287 286 286 286 286 286 287 287 288
300 299 297 296 295 295 295 295 293 291 290 291 290 289 288 287 285 284 283 283 282 281 280 280 279 279 279 279 280 280 281 282 283 283 284 284 284 285 285 285 285 286 286 286 285 285 285 285 285 286 286 287
302 302 301 301 301 301 301 300 298 297 298 298 297 294 291 288 286 284 283 283 281 281 280 280 280 279 279 279 280 280 281 281 282 282 282 282 282 283 284 284 285 285 286 286 286 285 284 284 284 285 285 285
301 301 301 302 302 303 304 304 303 303 304 303 301 299 296 293 290 288 286 284 283 283 283 282 282 281 281 281 281 281 281 282 282 282 283 283 283 283 283 284 285 285 285 285 285 285 285 284 284 284 284 284
301 300 300 300 300 301 302 302 302 303 303 302 301 299 298 296 294 291 290 289 288 288 288 287 287 286 285 284 284 284 284 284 284 283 283 284 283 283 283 284 284 285 285 285 285 285 285 285 284 283 283 283
301 300 299 299 298 298 298 298 297 297 297 296 296 296 296 295 294 293 293 293 293 293 293 293 292 292 290 289 289 288 288 287 286 285 285 284 284 283 283 283 283 284 284 285 285 286 286 285 284 283 283 283
303 303 302 301 300 299 298 298 297 295 295 294 293 293 293 292 292 293 293 293 294 294 294 295 295 294 293 292 292 291 291 289 288 287 286 285 285 284 283 283 283 284 284 284 285 286 286 285 285 285 284 282
306 305 304 303 302 301 300 299 298 296 295 294 294 293 292 291 290 290 290 290 291 291 292 293 293 293 293 292 292 292 291 291 290 289 288 286 286 285 284 284 284 284 283 284 285 286 287 287 287 286 285 283
306 305 305 304 303 303 303 301 299 297 296 295 294 294 293 291 291 290 289 288 288 288 289 289 290 290 290 290 290 290 290 290 289 289 288 287 287 286 286 286 286 285 284 284 285 286 286 287 288 288 287 286
306 305 305 305 305 305 304 302 300 299 298 296 295 294 293 293 292 291 290 289 289 288 288 287 287 287 288 288 288 288 288 288 288 287 287 286 286 287 287 287 287 287 286 286 286 286 286 287 288 288 288 287
308 306 304 303 302 302 301 301 300 298 297 297 296 295 294 293 292 291 291 290 290 289 288 288 287 287 286 286 285 285 285 285 285 285 285 285 285 285 286 286 286 286 287 287 287 286 286 287 287 287 287 286
309 306 304 302 300 299 299 299 299 298 298 297 296 295 294 293 292 292 292 291 291 290 290 289 288 288 287 286 285 284 284 283 283 284 284 284 284 284 285 285 285 286 286 286 286 285 284 284 284 284 285 285
310 307 304 303 301 301 300 300 299 299 298 298 298 297 296 295 295 294 294 293 293 292 291 291 290 289 288 287 286 285 285 284 284 284 284 284 284 284 285 285 285 285 284 284 284 284 283 282 281 280 281 281